EHI
15 16 16 12 5 1 0 0 1 1 0 0 0 0 0 0 1 1 1 1 2 2 3 4 3 3 3 2 1 0 0 0 1 1 2 3 2 1 0 1 1 2 2 2 1 1 1 1 2
13 12 11 8 3 0 0 1 2 2 1 0 0 0 0 0 0 0 1 1 1 2 3 3 4 4 4 3 1 0 0 1 2 3 3 3 2 1 1 1 1 1 1 1 0 0 1 1 2
11 8 6 4 1 0 0 1 3 2 1 0 0 0 1 1 0 0 0 0 1 2 4 4 5 6 6 5 3 1 0 2 4 3 3 3 2 2 2 1 0 0 0 0 0 0 0 2 3
9 7 4 2 0 0 0 1 2 2 1 1 1 1 2 2 1 1 0 0 0 2 4 5 6 6 6 6 5 2 0 1 3 3 2 2 2 2 3 2 1 1 0 0 0 0 0 1 2
7 4 2 0 0 0 0 1 1 2 2 2 2 2 2 3 2 1 0 0 0 2 5 7 7 7 6 6 5 3 1 1 2 3 3 2 1 2 2 2 2 1 0 0 0 0 0 0 1
4 2 1 0 0 0 0 0 1 2 2 2 2 2 2 3 3 1 0 0 0 2 6 7 8 7 6 6 5 3 1 1 2 3 3 2 1 1 1 1 1 1 0 0 0 0 0 0 0
2 2 1 0 0 0 0 0 1 2 2 2 2 1 2 3 3 2 0 0 0 2 4 7 8 7 6 6 5 3 1 0 1 2 2 2 1 1 0 0 1 0 0 0 0 0 0 0 0
2 2 1 0 0 0 0 1 1 2 3 2 2 1 2 2 2 1 0 0 1 2 4 5 6 5 5 4 4 4 2 1 0 1 2 2 1 0 0 0 0 0 0 0 0 0 0 0 0
1 1 0 0 1 1 1 2 2 2 3 4 3 2 2 1 1 0 0 0 1 2 3 4 4 3 2 3 4 4 4 2 1 1 2 2 1 0 0 0 0 0 0 0 0 0 0 0 0
0 0 0 0 0 1 2 2 2 1 2 4 4 2 1 1 1 0 0 0 1 2 3 4 3 3 2 2 3 3 2 1 0 0 1 1 0 0 0 0 0 0 0 0 0 0 0 0 0
0 0 0 0 0 1 1 1 1 0 1 3 2 1 1 2 2 1 1 2 1 2 3 4 4 4 3 3 3 2 1 0 0 0 0 0 0 0 0 0 0 0 0 0 0 0 0 0 0
0 0 0 0 0 0 0 0 0 0 1 1 1 1 1 2 3 2 2 3 1 1 2 3 4 4 3 3 3 2 1 0 0 0 0 0 0 0 0 0 0 0 0 0 0 0 0 0 0
0 0 0 0 0 0 0 0 1 1 1 1 1 1 1 2 2 2 2 2 1 1 1 2 3 4 4 3 2 1 0 0 0 0 0 0 0 0 0 0 0 0 0 0 0 0 0 0 0
0 0 0 0 0 0 0 0 1 2 2 1 1 1 1 1 2 2 2 1 1 1 2 3 3 4 4 3 1 1 1 0 0 0 0 0 0 0 0 0 0 0 0 0 0 0 0 0 0
0 0 0 0 0 0 0 1 2 3 3 1 0 0 0 1 2 2 2 2 2 3 3 3 4 5 4 2 1 1 1 0 0 1 0 0 0 0 0 0 0 0 0 0 0 0 0 0 0
0 0 1 0 0 0 0 1 2 3 3 1 0 0 1 2 2 2 2 3 4 3 3 4 5 6 5 3 2 2 1 0 0 0 0 0 0 0 0 0 0 0 0 0 0 0 0 0 0
0 0 0 0 0 0 0 0 1 2 2 1 1 2 2 2 2 2 2 3 4 4 3 3 4 5 5 5 4 3 1 1 0 0 0 0 0 0 0 0 0 0 0 0 0 0 0 0 0
0 0 0 0 0 0 0 0 0 1 2 1 1 4 5 4 2 1 2 3 3 3 3 3 3 4 6 6 6 5 4 2 1 0 0 0 0 0 0 0 0 0 0 0 0 0 0 0 0
0 0 0 0 0 0 0 0 0 1 1 1 1 3 5 5 3 2 1 2 3 3 3 3 3 5 6 7 8 8 6 4 2 0 0 0 0 0 0 0 0 0 0 0 0 0 0 0 0
0 0 0 0 0 0 0 0 0 0 0 0 0 2 4 4 2 2 2 2 2 3 4 3 4 6 8 9 9 8 8 6 4 2 0 0 0 0 0 0 0 0 0 0 0 0 0 0 0
0 0 0 0 0 0 0 0 0 0 0 0 0 1 2 2 1 2 3 3 3 3 3 4 5 8 10 10 9 9 9 7 5 3 1 0 0 0 0 0 0 0 0 0 0 0 0 0 0
0 0 0 0 0 0 0 0 0 0 0 0 0 1 1 2 2 3 5 6 5 3 2 3 5 8 10 10 9 10 9 7 5 4 2 1 0 0 0 0 0 0 0 0 0 0 0 0 0
0 0 0 0 0 0 0 0 1 1 1 0 0 1 2 3 4 6 7 8 6 4 3 3 6 8 9 8 8 9 9 7 6 5 3 2 0 0 0 0 0 0 0 0 0 0 0 0 0
0 0 0 0 0 0 0 0 1 2 1 0 0 1 2 4 8 9 9 9 8 5 4 5 6 7 9 8 8 9 8 6 6 6 5 4 2 0 0 0 0 0 0 0 0 0 0 0 0
0 0 0 0 0 0 0 0 0 1 1 0 0 0 1 4 9 11 12 11 9 7 6 5 5 7 8 7 7 8 7 6 6 7 7 5 3 1 0 0 0 0 0 0 0 0 0 0 0
0 0 0 0 0 0 0 0 0 0 0 0 0 0 0 3 8 11 12 12 10 8 6 4 4 5 7 6 6 7 7 6 7 8 7 5 3 1 0 0 0 0 0 0 0 0 0 0 0
0 0 0 0 0 0 0 0 0 0 0 0 0 0 0 3 7 9 10 11 11 8 6 4 3 4 6 6 7 8 8 7 7 8 7 3 1 0 0 0 0 0 0 0 0 0 0 0 0
0 0 0 0 0 0 0 0 0 0 0 0 0 0 1 3 6 8 9 10 10 9 6 4 3 3 3 5 8 10 10 9 7 7 6 3 1 0 0 0 0 0 0 0 0 0 0 0 0
0 0 0 0 0 0 0 0 0 0 0 0 0 1 1 2 5 7 8 8 9 9 7 5 4 2 1 4 7 10 10 9 8 7 6 4 1 1 1 1 0 0 0 0 0 0 0 0 0
0 0 0 0 0 0 0 0 0 0 0 0 0 1 2 2 4 7 7 6 8 9 7 6 5 2 1 3 7 9 9 8 7 7 7 4 1 1 2 1 0 0 0 0 0 0 0 0 0
Wind_Speed
7 8 5 2 2 1 2 4 6 5 5 7 7 8 12 12 9 8 2 5 7 8 8 8 9 9 9 9 9 9 9 9 9 9 10 10 10 10 10 10 9 9 9 8 8 8 7 7 7
8 5 3 3 2 1 3 5 7 7 6 4 7 10 12 11 10 7 3 4 6 8 8 9 9 9 10 10 9 9 8 8 9 9 9 9 10 10 10 10 10 9 9 9 8 8 8 7 6
9 6 3 2 1 2 4 6 7 7 5 4 7 10 9 7 8 5 3 4 7 9 9 8 9 9 10 9 9 9 8 9 9 9 9 9 10 10 10 10 10 10 9 9 9 8 8 8 8
5 3 3 0 3 6 6 6 6 6 4 5 7 9 8 7 5 5 5 6 8 9 8 8 9 9 10 10 9 9 9 9 9 10 10 9 9 10 10 10 10 10 10 9 9 9 9 8 7
3 2 2 1 3 5 6 5 5 5 4 6 9 9 8 7 8 7 5 7 8 8 7 8 8 9 9 10 10 9 9 9 9 10 9 9 9 10 10 10 10 10 10 10 9 9 9 8 8
2 2 1 2 4 4 5 4 5 6 6 5 8 9 6 6 6 5 6 6 7 8 8 7 8 10 10 10 10 11 10 9 9 9 9 8 9 9 10 10 10 10 10 10 9 9 9 8 8
3 2 1 3 4 3 4 4 4 4 6 5 5 8 6 6 5 5 6 6 6 6 7 6 7 8 10 10 10 10 10 9 9 8 8 8 8 9 10 10 9 10 10 9 9 8 8 7 7
2 2 1 2 3 4 5 4 4 5 6 5 5 6 5 6 6 5 6 5 5 6 6 5 7 7 7 6 8 9 8 8 8 7 7 7 8 8 9 8 8 9 9 8 7 7 6 5 5
3 1 2 2 2 4 5 4 5 4 6 7 8 9 9 8 7 6 6 4 5 6 4 4 6 6 6 6 7 6 6 6 6 5 5 4 3 4 5 8 8 8 7 6 5 4 3 3 2
1 2 3 3 3 5 5 4 4 4 6 7 9 10 11 8 6 5 5 5 5 4 4 4 5 5 5 4 4 3 3 3 2 3 3 2 2 4 5 6 6 6 5 4 3 3 2 2 1
2 2 3 4 4 5 5 4 3 3 4 5 8 9 8 7 5 4 5 5 5 4 3 4 5 5 4 3 3 2 2 2 2 3 4 2 3 3 3 2 2 2 3 2 2 2 2 2 2
3 3 3 3 4 4 3 3 4 4 5 7 8 9 8 7 5 4 5 5 4 4 4 4 4 4 4 3 3 2 2 2 2 2 4 3 2 3 2 2 2 2 2 2 2 2 3 4 4
3 3 4 4 4 3 4 3 3 4 5 7 8 8 7 6 5 4 4 5 5 5 4 4 3 4 4 4 2 3 2 2 3 2 3 4 2 2 2 2 2 2 2 2 2 3 3 4 4
5 4 4 3 4 3 4 3 2 4 6 7 8 7 6 5 5 5 4 4 4 5 4 3 3 4 4 3 3 3 2 2 3 2 2 4 2 2 2 2 2 2 2 2 2 3 3 3 3
5 5 4 4 5 4 3 2 3 6 7 7 7 7 6 5 5 4 4 4 4 4 4 4 3 4 4 4 3 3 2 3 3 2 2 3 3 3 3 2 2 2 2 3 3 4 3 3 3
7 6 4 4 5 5 4 3 5 6 7 6 6 7 6 5 4 4 4 4 4 4 4 4 4 4 4 3 3 2 3 3 2 2 2 3 3 4 3 2 2 2 2 2 2 3 3 3 3
6 6 5 6 5 5 5 4 6 7 7 7 6 7 7 5 4 4 4 4 4 4 4 4 4 4 4 4 4 3 3 3 2 2 2 3 4 4 3 2 2 3 3 2 3 2 2 2 2
3 4 2 3 4 5 5 4 7 7 7 7 6 7 7 6 5 4 4 4 4 4 4 4 4 3 4 3 3 2 3 3 2 2 3 3 3 4 3 2 3 3 3 3 3 3 2 2 2
3 3 2 1 2 4 5 5 7 7 6 6 6 6 6 6 6 6 5 5 4 4 4 4 4 3 3 2 2 2 2 2 2 3 4 4 4 4 3 3 3 3 3 2 3 2 3 2 2
5 5 4 2 2 3 4 5 6 7 8 6 6 6 7 6 6 6 6 5 4 4 3 3 3 3 3 2 2 2 2 2 3 2 3 3 3 4 3 3 3 3 2 3 3 3 2 2 2
6 6 4 2 2 6 6 6 7 8 6 6 4 4 5 7 7 7 5 5 4 3 3 2 3 4 3 3 2 3 2 2 2 2 2 3 3 3 3 3 3 3 3 2 2 3 3 2 2
5 4 4 5 5 5 7 5 6 8 7 7 5 4 4 6 6 7 6 5 4 3 3 3 3 3 3 3 3 3 2 2 1 1 1 2 3 3 3 3 3 3 2 2 2 2 1 2 2
5 5 6 8 8 8 8 6 4 8 7 7 6 5 5 6 6 6 6 5 4 3 2 3 3 3 3 3 3 2 2 2 1 2 2 2 2 2 2 2 2 2 2 2 2 2 2 1 1
6 7 9 8 7 8 7 5 2 5 6 7 7 6 6 6 5 5 6 5 4 3 3 2 3 3 3 2 3 3 3 2 2 2 2 1 1 1 2 3 3 2 2 2 2 2 2 1 1
6 6 4 4 5 4 3 3 1 5 5 6 7 7 6 6 6 6 6 5 3 3 3 3 3 3 3 2 2 2 3 3 3 2 2 1 1 1 1 2 2 2 1 2 2 1 1 1 1
5 5 4 4 4 4 3 2 4 6 5 5 6 6 6 7 6 6 6 5 4 4 3 3 2 2 2 2 2 2 2 2 2 2 2 1 1 1 1 1 1 1 1 2 2 1 1 2 1
5 5 6 7 9 7 2 3 5 5 5 5 6 6 6 6 5 5 5 5 4 4 3 3 3 2 2 2 2 2 2 2 2 2 2 2 1 2 2 1 1 1 1 1 1 1 1 2 2
5 5 4 5 5 5 3 1 3 5 4 4 5 6 5 6 5 5 4 4 4 3 2 2 2 2 2 2 2 2 2 3 2 2 3 2 1 2 2 1 1 1 1 1 1 1 1 0 1
4 4 5 5 4 4 4 1 4 4 3 3 4 5 5 5 5 5 4 4 3 3 3 2 2 2 2 2 2 2 2 2 2 2 2 2 2 2 2 1 1 1 1 1 1 1 1 1 1
3 4 5 5 5 5 4 1 4 4 4 4 4 4 4 3 3 4 4 4 3 3 3 2 3 2 2 2 2 2 2 2 2 2 2 2 1 1 2 2 1 1 0 1 1 0 1 1 1
Wind_Direction
249 239 235 239 248 202 61 69 75 62 57 43 43 55 66 50 50 88 110 84 90 94 94 80 67 67 65 64 64 64 64 64 61 60 62 64 64 67 65 64 64 67 66 63 60 62 64 64 61
265 256 252 235 252 110 73 74 71 66 72 68 59 60 70 66 68 90 82 78 92 93 89 78 73 72 69 67 67 67 66 67 65 64 67 67 65 66 65 63 64 66 64 59 57 58 60 61 59
262 258 260 256 4 63 79 81 82 80 66 66 72 59 57 67 75 90 110 103 89 86 88 86 80 76 72 72 71 69 68 69 69 68 69 68 67 65 63 63 64 63 62 58 56 56 56 56 54
256 248 244 186 58 64 87 97 100 97 79 67 80 74 69 60 78 102 115 100 91 89 92 92 85 80 75 76 73 71 73 74 74 72 70 69 70 67 67 65 63 62 60 60 59 58 58 56 50
240 251 213 118 82 77 77 83 92 95 83 72 82 86 77 69 89 100 100 95 96 100 102 103 95 88 82 79 76 73 76 77 76 74 72 72 72 71 68 67 63 63 61 61 59 59 59 55 47
255 242 213 113 100 93 85 75 84 97 95 83 93 97 90 95 94 98 92 92 96 105 106 106 105 101 92 85 79 76 77 79 78 74 74 77 79 76 72 70 65 63 60 59 60 61 61 54 45
272 289 171 115 111 101 86 73 73 81 84 72 87 96 108 107 107 111 101 95 94 99 107 111 121 113 103 94 88 84 81 83 82 80 78 79 81 81 77 72 70 68 64 59 59 61 60 56 48
286 300 135 118 116 97 87 82 65 71 73 63 74 101 119 126 129 122 108 104 98 90 98 108 115 124 122 113 100 97 93 90 88 84 81 81 79 81 81 80 77 75 71 65 63 61 59 56 47
270 286 27 66 88 105 107 105 90 74 91 72 62 84 116 129 133 125 115 108 94 87 89 95 102 112 118 121 116 115 111 104 98 93 81 83 87 92 82 82 85 80 77 70 57 50 57 54 42
165 47 38 57 81 101 109 107 114 122 99 88 85 93 116 128 130 129 124 117 110 105 102 100 99 100 103 101 115 125 111 108 103 102 89 71 67 73 79 86 84 83 81 75 49 23 25 16 35
97 97 72 69 78 91 103 98 90 104 92 104 114 118 126 130 131 129 115 111 110 107 96 100 101 99 101 104 105 96 99 96 70 76 92 76 72 76 75 80 73 74 82 56 42 20 8 18 42
103 85 86 88 90 97 101 98 85 64 84 103 117 127 134 138 137 130 120 118 113 101 94 89 93 100 97 91 97 93 87 95 77 52 81 75 65 62 59 61 43 38 37 29 27 26 27 31 30
111 104 99 93 90 103 106 93 92 96 96 108 121 128 133 136 135 128 122 121 121 115 102 90 93 100 97 88 88 88 71 66 83 65 72 83 72 69 65 60 49 31 30 33 25 35 39 35 32
115 119 122 129 136 148 132 133 139 128 125 128 132 132 135 138 131 124 121 116 111 111 112 98 97 94 99 97 88 86 90 77 62 45 61 84 83 76 72 63 50 32 22 24 29 40 43 47 42
154 166 168 176 181 168 151 148 156 146 142 140 142 139 141 140 134 129 128 125 119 116 117 119 114 95 92 84 77 79 73 75 66 42 38 71 76 73 73 63 51 35 27 30 29 36 39 41 41
204 202 192 191 196 187 195 172 147 157 153 149 152 144 144 141 138 137 135 122 117 117 113 112 107 99 91 94 85 80 76 73 65 49 31 49 66 71 59 49 45 45 35 28 40 37 37 42 32
223 225 195 192 191 192 215 168 162 170 166 167 166 153 148 143 138 125 122 110 103 105 106 99 89 95 91 95 90 76 75 72 64 47 40 39 46 60 67 50 42 45 44 27 34 47 46 49 31
244 259 222 191 187 204 210 188 171 174 179 178 167 153 151 152 151 141 122 113 110 104 103 104 95 91 93 89 88 80 66 65 65 56 44 47 49 46 48 55 53 49 45 27 25 28 41 52 29
291 277 268 211 188 234 222 204 183 173 182 185 170 163 157 155 154 143 136 126 124 118 110 108 107 96 93 88 85 84 76 65 55 53 43 39 49 51 49 43 52 52 54 35 28 30 33 35 36
278 275 260 195 190 251 247 223 188 180 190 188 179 168 160 154 148 140 139 136 138 128 111 109 110 102 101 95 105 106 88 76 73 56 47 36 41 45 47 45 54 54 55 40 33 39 32 8 28
258 281 282 271 248 254 253 237 202 179 177 169 173 163 158 158 155 145 144 142 136 127 125 130 116 106 100 101 86 87 77 72 70 70 57 37 40 50 51 48 50 56 60 49 43 44 44 9 355
272 301 301 279 263 246 240 252 208 174 173 178 177 170 164 156 151 144 144 136 133 131 136 135 124 121 120 123 113 113 112 112 118 105 93 67 49 50 47 52 57 53 51 57 44 47 45 37 358
298 302 285 270 265 265 245 252 201 166 170 172 168 167 155 148 146 142 139 132 133 129 129 137 134 131 125 120 131 130 120 128 112 91 87 77 53 54 48 46 66 64 56 57 41 42 40 43 28
285 278 265 256 256 255 242 244 205 165 167 161 158 156 148 148 143 138 130 127 133 135 132 132 126 124 130 143 150 138 129 124 110 100 100 94 70 40 46 43 51 56 55 49 33 39 28 17 12
264 276 270 247 232 247 206 222 116 121 139 149 151 146 145 148 143 137 132 132 136 133 133 138 141 151 155 159 149 148 140 149 147 139 132 121 107 68 62 55 54 53 48 55 37 34 14 14 19
270 268 283 294 289 287 227 193 103 101 113 118 124 131 135 144 147 145 145 147 147 144 145 149 146 151 156 162 162 145 143 147 143 144 137 142 133 130 114 75 74 64 53 47 37 22 5 17 24
276 270 277 280 281 280 243 133 117 109 117 127 126 126 132 141 147 150 148 144 144 149 158 162 150 150 154 168 168 146 135 135 145 148 132 127 125 139 120 103 88 78 72 64 53 39 15 12 10
268 292 293 281 288 285 271 170 144 143 131 140 147 143 145 146 149 147 145 148 152 154 167 162 155 166 164 146 155 139 134 141 145 132 124 129 151 135 138 146 125 112 87 73 64 22 356 19 339
245 260 269 274 269 278 292 49 75 124 133 141 137 135 141 144 147 149 149 148 149 155 169 172 168 168 155 152 154 155 153 147 141 129 129 142 160 156 157 151 145 112 101 98 90 20 346 356 356
290 278 277 281 290 292 286 101 73 74 68 84 97 108 115 127 134 141 143 142 142 153 169 175 173 171 168 163 158 160 152 149 150 139 141 145 164 182 160 153 154 146 116 121 139 244 22 6 349